sat.trackr.live / text

‹ back to catalog

STARLINK-34550

NORAD 64683 · 2025-139V

PAYLOAD ACTIVE UNKNOWN

§ Identity

Operator
Country
US
Launch date
2025-06-28
Launch site
AFETR
Launch vehicle
Mass (kg)
RCS (m²)

Purposes: comms

External: N2YO · Heavens-Above · Gunter

§ Orbital elements

Epoch: 2026-09-20T09:00:35.951040Z

Period
93.85 min
Inclination
53.1594°
Eccentricity
0.0000951
Mean motion
15.34396919 rev/d
Perigee alt
462.1 km
Apogee alt
463.4 km
Semi-major
6,840.8 km
B*
6.0195e-4
RAAN
298.3258°
Arg perigee
89.1706°
Mean anomaly
270.9406°
Rev number
7,015

§ Raw data

STARLINK-345501 64683U 25139V   26263.37541610  .00020014  00000+0  60195-3 0  99932 64683  53.1594 298.3258 0000951  89.1706 270.9406 15.34396919 70150

JSON: /api/v1/satellites/64683 · /tle

For live sub-satellite position, see the globe view (requires WebGL).

§ Visibility from observer

Set your observer location to see the next 7 days of passes ≥ 10°. The values pass through the URL so the page stays shareable.

No JS? Fill the form by hand. The geolocation button needs JavaScript.